This is the latest recevied weather packets stored in our database for station/object K2ATL. If no packets are shown the sender has not sent any weather packets the latest 10 day(s).
| Time | Temp. | Humidity | Pressure | Rain* | Wind** | Luminosity | Snow |
|---|---|---|---|---|---|---|---|
| 1787655343 | 18.89° C | 70% | 1104.2 hPa | 0 mm | - | 0 W/m² | - |
| 1787655043 | 18.89° C | 72% | 1104.1 hPa | 0 mm | - | 0 W/m² | - |
| 1787654739 | 18.89° C | 73% | 1104 hPa | 0 mm | - | 0 W/m² | - |
| 1787654434 | 18.89° C | 70% | 1103.8 hPa | 0 mm | - | 0 W/m² | - |
| 1787654130 | 19.44° C | 70% | 1103.7 hPa | 0 mm | - | 0 W/m² | - |
| 1787653830 | 19.44° C | 69% | 1103.8 hPa | 0 mm | - | 0 W/m² | - |
| 1787653525 | 19.44° C | 68% | 1103.9 hPa | 0 mm | - | 0 W/m² | - |
| 1787653220 | 19.44° C | 69% | 1104 hPa | 0 mm | - | 0 W/m² | - |
| 1787652915 | 19.44° C | 70% | 1103.8 hPa | 0 mm | - | 0 W/m² | - |
| 1787652610 | 19.44° C | 70% | 1103.9 hPa | 0 mm | - | 0 W/m² | - |
| 1787652309 | 19.44° C | 73% | 1103.8 hPa | 0 mm | - | 0 W/m² | - |
| 1787652005 | 19.44° C | 74% | 1103.8 hPa | 0 mm | - | 0 W/m² | - |
| 1787651703 | 18.89° C | 74% | 1104 hPa | 0 mm | - | 0 W/m² | - |
| 1787651398 | 18.89° C | 76% | 1103.9 hPa | 0 mm | - | 0 W/m² | - |
| 1787651094 | 18.89° C | 76% | 1104.1 hPa | 0 mm | - | 0 W/m² | - |
| 1787650789 | 18.89° C | 75% | 1103.8 hPa | 0 mm | - | 0 W/m² | - |
| 1787650485 | 18.89° C | 75% | 1103.8 hPa | 0 mm | - | 0 W/m² | - |
| 1787650180 | 18.89° C | 73% | 1104 hPa | 0 mm | - | 0 W/m² | - |
| 1787649875 | 19.44° C | 71% | 1103.6 hPa | 0 mm | - | 0 W/m² | - |
| 1787649571 | 18.89° C | 71% | 1103.7 hPa | 0 mm | - | 0 W/m² | - |
| 1787649265 | 18.89° C | 70% | 1103.8 hPa | 0 mm | - | 0 W/m² | - |
| 1787648960 | 18.89° C | 69% | 1103.5 hPa | 0 mm | - | 0 W/m² | - |
| 1787648660 | 18.33° C | 71% | 1103.5 hPa | 0 mm | - | 0 W/m² | - |
| 1787648357 | 18.33° C | 71% | 1103.6 hPa | 0 mm | - | 0 W/m² | - |
| 1787648052 | 18.33° C | 71% | 1103.4 hPa | 0 mm | - | 0 W/m² | - |
* Rain latest hour (hover to see other rain measurements)
** Current wind speed in m/s (hover to see current wind gust speed)